S-NET D (43186 NORAD) Tracking and Keplerian Element Data

This shows tracking and keplerian element data for the satellite.

Feedback or suggestion? Click here.




ElementValue
Catalog43186
NameS-NET D
Epoch Orbit19941
Epoch Day269.48097982
Epoch Year2021
RAAN175.2092
Inclination97.6674
Eccentricity0.0012501
Argument of Perigee102.2501
Mean Anonmoly258.0122
Mean Motion14.97144337
Decay Rate9.62E-06
L11 43186U 18014G 21269.48097982 .00000962 00000-0 88198-4 0 9998
L22 43186 97.6674 175.2092 0012501 102.2501 258.0122 14.97144337199416

Live tracking and technical data element details for S-NET D (NORAD 43186). S-NET D can be tracked NOW for your location showing map with azimuth and elevation plus other details from your city location.

Track the satellite on the map from your city or location and see movement details for azimuth, elevation, latitude, longitude, range, height, and movement on the map or in text.







IsCatalogInMostPopularTable: catalog: 43186, numindb: 601
Update: records affected: 1



GetName: 43186 S-NET D

Hit Count: updated at: Tue, 28 Sep 2021 15:57:12 GMT